Regional Weather Roundup
Issued by NWS

Home | Current Version | Previous Version | Graphics & Text | Print | Product List | Glossary Off
Versions: 1 2 3 4 5 6 7 8 9 10 11 12 13 14 15 16 17 18 19 20 21 22 23 24 25 26 27 28 29 30 31 32 33 34 35 36 37 38 39 40 41 42 43 44 45 46 47 48 49 50

000
ASUS43 KMKX 110510
RWRWI

WISCONSIN REGIONAL WEATHER ROUNDUP
NATIONAL WEATHER SERVICE MILWAUKEE/SULLIVAN WI
1100 PM CST SUN DEC 10 2017

NOTE: "FAIR" INDICATES FEW OR NO CLOUDS BELOW 12,000 FEET WITH NO
SIGNIFICANT WEATHER AND/OR OBSTRUCTIONS TO VISIBILITY.

WIZ001-002-006>008-014>016-023>028-110600-
NORTHWEST WISCONSIN

CITY           SKY/WX    TMP DP  RH WIND       PRES   REMARKS
SUPERIOR ARPT  CLOUDY    13  10  90 CALM      29.98F
ASHLAND        CLOUDY     8   5  87 S3        29.98F
HAYWARD        CLOUDY    10   6  84 CALM      29.95F
SIREN          CLOUDY    17  14  88 SE3       29.96F
CUMBERLAND     PTCLDY    12  10  92 CALM      29.95F
RICE LAKE      PTCLDY    11   9  91 CALM      29.99F
CHETEK           N/A     11   9  90 CALM      29.98F
LADYSMITH      CLOUDY    11   9  90 CALM      30.00S
EAU CLAIRE     CLOUDY    20  17  88 CALM      29.99F
MENOMONIE      CLOUDY    19  17  89 E3        29.99F
NEW RICHMOND   CLOUDY    19  17  95 SE5       29.96F WCI  12
OSCEOLA        CLOUDY    20  19  95 CALM      29.99F
$$

WIZ003>005-009-010-017-018-110600-
NORTH CENTRAL WISCONSIN

CITY           SKY/WX    TMP DP  RH WIND       PRES   REMARKS
MANITOWISH WTR CLOUDY     4   2  92 CALM      29.94F
ARBOR VITAE    CLOUDY    12   9  90 CALM      29.95S
WOODRUFF       CLOUDY    12   9  90 CALM      29.95S
RHINELANDER    CLOUDY     9   6  88 W3        29.97R
EAGLE RIVER    FLURRIES  14   9  80 SW3       29.95R
LAND O LAKES   CLOUDY    15  11  87 CALM      29.96R
PHILLIPS       CLOUDY   N/A N/A N/A CALM      29.95F
TOMAHAWK       CLOUDY     7   4  89 CALM      29.97F
MEDFORD        CLOUDY    12   9  88 SE3       29.96S
MERRILL        CLOUDY    12   9  87 CALM      29.99S
$$

WIZ029-030-035-036-043>047-110600-
CENTRAL WISCONSIN

CITY           SKY/WX    TMP DP  RH WIND       PRES   REMARKS
WAUSAU         CLOUDY    19  12  74 W3        29.99R
MOSINEE        NOT AVBL
MARSHFIELD     CLOUDY    16  13  88 SW5       29.98F WCI   9
STEVENS POINT  CLOUDY    19  14  82 CALM      30.01F
WAUPACA        CLOUDY    25  15  66 W5        30.03S WCI  19
WAUTOMA        CLOUDY    23  15  71 SW3       30.04S
WISC RAPIDS    CLOUDY    17  12  80 CALM      30.02F
CAMP DOUGLAS   CLOUDY    22  18  85 CALM      30.02F
$$

WIZ011>013-019>022-031-037>040-048>050-110600-
NORTHEAST WISCONSIN

CITY           SKY/WX    TMP DP  RH WIND       PRES   REMARKS
ANTIGO         CLOUDY    17  11  80 CALM      29.97S
SHAWANO        CLOUDY    21  16  79 CALM      30.02F
OCONTO         PTCLDY    12   8  83 CALM      30.04S
STURGEON BAY   MOCLDY    18   9  68 NW7       30.04F WCI   9
GREEN BAY      CLOUDY    21  14  74 NE5       30.03F WCI  15
MANITOWOC      CLOUDY    18  12  77 CALM      30.05S
APPLETON       MOCLDY    25  12  58 CALM      30.01F
CLINTONVILLE   CLOUDY    23  16  74 CALM      30.03S
OSHKOSH        CLOUDY    25  16  68 CALM      30.03F
$$

WIZ032>034-041-042-053>061-110600-
SOUTHWEST WISCONSIN

CITY           SKY/WX    TMP DP  RH WIND       PRES   REMARKS
LA CROSSE      CLOUDY    28  20  71 S3        30.03F
SPARTA         CLOUDY    22  20  89 CALM      30.03F
VIROQUA        CLOUDY    24  21  87 CALM      30.00F
BOSCOBEL       CLOUDY    28  18  66 CALM      30.05F
PRAIRIE DU CHI CLOUDY    22  18  83 E3        30.05F
PLATTEVILLE    CLOUDY    22  20  93 E3        30.05S
$$

WIZ056-057-062-063-064-067-068-110600-
SOUTH CENTRAL WISCONSIN

CITY           SKY/WX    TMP DP  RH WIND       PRES   REMARKS
REEDSBURG      CLOUDY    25  17  70 CALM      30.04S
BARABOO/DELLS  CLOUDY    24  17  72 CALM      30.03F
LONE ROCK      CLOUDY    24  19  81 CALM      30.06F
MINERAL POINT  CLOUDY    27  23  86 CALM      30.03F
MADISON        CLOUDY    25  18  74 CALM      30.05S
MIDDLETON      CLOUDY    22  17  80 W3        30.05F
WATERTOWN      CLOUDY    25  17  70 CALM      30.05F
MONROE         CLOUDY    25  19  80 CALM      30.04F
JANESVILLE     CLOUDY    27  19  74 CALM      30.06S
$$

WIZ051-052-058>065-066-070>072-110600-
SOUTHEAST WISCONSIN

CITY           SKY/WX    TMP DP  RH WIND       PRES   REMARKS
MILWAUKEE      CLOUDY    28  17  63 NW6       30.06F WCI  22
WAUKESHA       CLOUDY    25  16  68 NW3       30.06F
MILWAUKEE/TIMM CLOUDY    27  14  59 NW5       30.06F WCI  21
RACINE         CLOUDY    26  15  63 NW7       30.08S WCI  18
BURLINGTON     CLOUDY    33  29  86 CALM      30.05F
KENOSHA        CLOUDY    27  17  66 NW5       30.06F WCI  22
FOND DU LAC    CLOUDY    25  15  66 W5        30.04F WCI  19
SHEBOYGAN      CLOUDY    24  17  74 CALM      30.04S
WEST BEND      CLOUDY    27  18  69 W3        30.03F
JUNEAU         CLOUDY    24  18  80 CALM      30.06S
$$

LSZ147-162-110600-
LAKE SUPERIOR

STATION/POSITION TIME  TEMP    WIND        PRES    WAVE
                       AIR SEA DIR/SP/G            HT/PER
                 (UTC) (F)     (DEG/KT/KT) (MB)    (FT/S)
DEVILS ISLAND    0500   22     160/  5/  6 1015.8F
SAXON HARBOR     0430   14                 1015.6F
$$

LMZ867-665-643>646-110600-
LAKE MICHIGAN

STATION/POSITION TIME  TEMP    WIND        PRES    WAVE
                       AIR SEA DIR/SP/G            HT/PER
                 (UTC) (F)     (DEG/KT/KT) (MB)    (FT/S)
NORTHPORT PIER   0440   19     290/  7/ 14 1016.9F
KEWAUNEE LAKESHO 0442   18     310/  2/  2 1016.3F
SHEBOYGAN LAKESH 0500   26     300/  4/  5 1018.3F
PORT WASHINGTON  0440   27     270/  4/  6 1019.0R
MILWAUKEE LAKESH 0450   27     320/  6/  8   N/A
KENOSHA   LAKESH 0500   27     330/  7/  8 1018.3
$$

TC  - TEMPERATURE IN CELSIUS
VSB - VISIBILITY IN STATUTE MILES
WCI - WIND CHILL INDEX
HX  - HEAT INDEX





USA.gov is the U.S. government's official web portal to all federal, state and local government web resources and services.